Location: Zagreb
(45.8000°N, 16.0000°E)
Time: 00:02:06
(UTC+02:00)

A-11 Canister half - Visible Passes

Search period start: 26 September 2023 00:00
Search period end: 06 October 2023 00:00
Orbit: 1524 x 1684 km, 47.3° (Epoch: 25 September)

Date Brightness Start Highest point End Pass type
(mag) Time Alt. Az. Time Alt. Az. Time Alt. Az.
26 Sep 9.2 19:46:55 10° WNW 19:56:31 78° SSW 20:04:54 16° ESE visible
26 Sep 9.9 21:52:16 10° WNW 22:00:44 35° SW 22:03:12 31° SSW visible
27 Sep 9.2 19:25:12 10° WNW 19:34:47 79° SSW 19:44:28 11° ESE visible
27 Sep 9.9 21:30:29 10° WNW 21:39:03 37° SW 21:42:45 28° S visible
28 Sep 9.2 19:03:29 10° WNW 19:13:03 81° SSW 19:22:56 10° ESE visible
28 Sep 9.9 21:08:43 10° WNW 21:17:22 39° SW 21:22:23 24° S visible
29 Sep 9.9 20:46:58 10° WNW 20:55:40 40° SW 21:02:07 19° SSE visible
30 Sep 9.9 20:25:12 10° WNW 20:33:59 42° SW 20:41:55 14° SSE visible
30 Sep 11.0 22:34:45 10° WSW 22:37:02 11° WSW 22:39:21 10° SW visible
01 Oct 9.9 20:03:27 10° WNW 20:12:18 44° SW 20:21:26 10° SSE visible
01 Oct 11.0 22:12:12 10° WSW 22:15:25 12° WSW 22:18:40 10° SW visible
02 Oct 9.9 19:41:43 10° WNW 19:50:36 46° SW 19:59:48 10° SSE visible
02 Oct 11.0 21:49:52 10° W 21:53:47 13° WSW 21:57:44 10° SSW visible
03 Oct 9.9 19:19:58 10° WNW 19:28:55 47° SW 19:38:10 10° SSE visible
03 Oct 11.1 21:27:42 10° W 21:32:09 14° WSW 21:36:40 10° SSW visible
04 Oct 9.9 18:58:14 10° WNW 19:07:14 49° SW 19:16:30 10° SE visible
04 Oct 11.1 21:05:36 10° W 21:10:31 15° SW 21:15:31 10° SSW visible
05 Oct 11.1 20:43:34 10° W 20:48:53 16° SW 20:54:17 10° SSW visible
